N493MM KSHV-F87

Flight info

Callsign N493MM
Flight time N/A
Altitude 5500
Route /
Aircraft TBM9/L-VGDW/C

Departure

Time 2026-04-21 10:44
Airport Shreveport Regional Airport (KSHV)

Arrival

Time N/A
Airport F87
Time Latitude Longitude Altitude Speed Heading
2026-04-21 10:37 32.45169 -93.82781 251 ft 0 kts 121°
2026-04-21 10:41 32.45167 -93.82776 251 ft 5 kts 119°
2026-04-21 10:41 32.45111 -93.82763 249 ft 11 kts 179°
2026-04-21 10:41 32.45031 -93.82778 248 ft 12 kts 233°
2026-04-21 10:41 32.45045 -93.82891 249 ft 21 kts 293°
2026-04-21 10:42 32.45137 -93.83056 254 ft 25 kts 314°
2026-04-21 10:42 32.45279 -93.83191 260 ft 26 kts 322°
2026-04-21 10:42 32.45416 -93.83314 265 ft 21 kts 322°
2026-04-21 10:42 32.45419 -93.83418 265 ft 15 kts 236°
2026-04-21 10:43 32.45410 -93.83435 264 ft 0 kts 237°
2026-04-21 10:43 32.45408 -93.83437 264 ft 3 kts 236°
2026-04-21 10:43 32.45360 -93.83465 263 ft 12 kts 152°
2026-04-21 10:43 32.45170 -93.83297 256 ft 66 kts 142°
2026-04-21 10:44 32.44663 -93.82836 351 ft 108 kts 141°
2026-04-21 10:44 32.44069 -93.82285 762 ft 118 kts 143°
2026-04-21 10:44 32.43455 -93.81565 1207 ft 124 kts 121°
2026-04-21 10:44 32.43050 -93.80684 1835 ft 119 kts 121°
2026-04-21 10:45 32.42637 -93.79827 2345 ft 120 kts 120°
2026-04-21 10:45 32.42570 -93.78870 2857 ft 124 kts 75°
2026-04-21 10:45 32.42867 -93.77829 3160 ft 143 kts 76°
2026-04-21 10:45 32.43170 -93.76700 3723 ft 142 kts 76°
2026-04-21 10:46 32.43477 -93.75586 4261 ft 145 kts 76°
2026-04-21 10:46 32.43689 -93.74819 4621 ft 148 kts 76°
2026-04-21 10:46 32.44010 -93.73655 5155 ft 151 kts 76°
2026-04-21 10:46 32.44348 -93.72421 5492 ft 169 kts 76°
2026-04-21 10:47 32.44735 -93.70966 5503 ft 200 kts 76°
2026-04-21 10:47 32.45179 -93.69323 5509 ft 220 kts 75°
2026-04-21 10:47 32.45673 -93.67525 5506 ft 233 kts 75°
2026-04-21 10:47 32.46178 -93.65692 5504 ft 240 kts 75°
2026-04-21 10:48 32.46698 -93.63800 5506 ft 244 kts 75°
2026-04-21 10:48 32.47224 -93.61888 5505 ft 246 kts 75°
2026-04-21 10:48 32.47759 -93.59940 5505 ft 247 kts 75°
2026-04-21 10:48 32.48288 -93.58013 5505 ft 247 kts 75°
2026-04-21 10:49 32.48816 -93.56087 5502 ft 248 kts 75°
2026-04-21 10:49 32.49347 -93.54147 5503 ft 248 kts 75°
2026-04-21 10:49 32.49882 -93.52192 5502 ft 248 kts 75°
2026-04-21 10:49 32.50410 -93.50259 5501 ft 248 kts 75°
2026-04-21 10:50 32.50939 -93.48325 5500 ft 248 kts 75°
2026-04-21 10:50 32.51467 -93.46389 5502 ft 248 kts 75°
2026-04-21 10:50 32.52001 -93.44434 5510 ft 248 kts 75°
2026-04-21 10:50 32.52525 -93.42508 5509 ft 248 kts 75°
2026-04-21 10:51 32.53059 -93.40552 5510 ft 248 kts 75°
2026-04-21 10:51 32.53583 -93.38623 5508 ft 247 kts 75°
2026-04-21 10:51 32.54109 -93.36690 5507 ft 247 kts 75°
2026-04-21 10:51 32.54637 -93.34749 5504 ft 247 kts 74°
2026-04-21 10:52 32.55168 -93.32796 5506 ft 247 kts 74°
2026-04-21 10:52 32.55690 -93.30871 5503 ft 247 kts 74°
2026-04-21 10:52 32.56221 -93.28916 5503 ft 247 kts 74°
2026-04-21 10:52 32.56744 -93.26986 5507 ft 247 kts 74°
2026-04-21 10:53 32.57271 -93.25040 5507 ft 247 kts 74°
2026-04-21 10:53 32.57795 -93.23104 5504 ft 247 kts 74°
2026-04-21 10:53 32.58319 -93.21165 5503 ft 247 kts 74°
2026-04-21 10:53 32.58846 -93.19221 5504 ft 247 kts 74°
2026-04-21 10:54 32.59363 -93.17305 5504 ft 247 kts 74°
2026-04-21 10:54 32.59887 -93.15364 5506 ft 247 kts 74°
2026-04-21 10:54 32.60411 -93.13421 5503 ft 247 kts 74°
2026-04-21 10:54 32.60935 -93.11481 5504 ft 247 kts 74°
2026-04-21 10:55 32.61456 -93.09543 5505 ft 247 kts 74°
2026-04-21 10:55 32.61979 -93.07603 5503 ft 247 kts 74°
2026-04-21 10:55 32.62501 -93.05664 5501 ft 247 kts 74°
2026-04-21 10:55 32.63022 -93.03723 5505 ft 247 kts 74°
2026-04-21 10:56 32.63543 -93.01787 5505 ft 247 kts 74°
2026-04-21 10:56 32.64063 -92.99850 5506 ft 246 kts 74°
2026-04-21 10:56 32.64583 -92.97913 5506 ft 246 kts 74°
2026-04-21 10:56 32.65102 -92.95975 5504 ft 246 kts 74°
2026-04-21 10:57 32.65620 -92.94040 5505 ft 246 kts 74°
2026-04-21 10:57 32.66133 -92.92124 5504 ft 246 kts 74°
2026-04-21 10:57 32.66654 -92.90184 5500 ft 246 kts 74°
2026-04-21 10:57 32.67171 -92.88247 5504 ft 246 kts 74°
2026-04-21 10:58 32.67688 -92.86312 5501 ft 246 kts 74°
2026-04-21 10:58 32.68204 -92.84378 5500 ft 246 kts 73°
2026-04-21 10:58 32.68720 -92.82447 5504 ft 246 kts 73°
2026-04-21 10:58 32.69235 -92.80514 5503 ft 245 kts 73°
2026-04-21 10:59 32.69750 -92.78582 5502 ft 245 kts 73°
2026-04-21 10:59 32.70265 -92.76650 5500 ft 245 kts 73°
2026-04-21 10:59 32.70778 -92.74720 5498 ft 245 kts 73°
2026-04-21 10:59 32.71292 -92.72789 5498 ft 245 kts 73°
2026-04-21 11:00 32.71803 -92.70862 5501 ft 245 kts 73°
2026-04-21 11:00 32.72316 -92.68933 5498 ft 245 kts 73°
2026-04-21 11:00 32.72827 -92.67005 5506 ft 245 kts 73°
2026-04-21 11:00 32.73339 -92.65078 5506 ft 245 kts 73°
2026-04-21 11:01 32.73848 -92.63153 5500 ft 244 kts 73°
2026-04-21 11:01 32.74360 -92.61219 5441 ft 247 kts 73°
2026-04-21 11:01 32.74877 -92.59245 5178 ft 253 kts 74°
2026-04-21 11:02 32.75934 -92.55223 4502 ft 257 kts 74°
2026-04-21 11:02 32.76473 -92.53211 4167 ft 256 kts 74°
2026-04-21 11:02 32.77010 -92.51175 3820 ft 253 kts 74°
2026-04-21 11:02 32.77528 -92.49208 3488 ft 249 kts 74°
2026-04-21 11:03 32.78040 -92.47268 3154 ft 243 kts 74°
2026-04-21 11:03 32.78540 -92.45379 2838 ft 240 kts 74°
2026-04-21 11:03 32.79043 -92.43481 2522 ft 238 kts 74°
2026-04-21 11:03 32.79530 -92.41619 2206 ft 232 kts 74°
2026-04-21 11:04 32.79794 -92.39863 1920 ft 202 kts 92°
2026-04-21 11:04 32.79562 -92.38335 1678 ft 179 kts 109°
2026-04-21 11:04 32.79025 -92.37101 1443 ft 160 kts 125°
2026-04-21 11:04 32.78318 -92.36195 1239 ft 138 kts 139°
2026-04-21 11:05 32.77573 -92.35608 1060 ft 122 kts 151°
2026-04-21 11:05 32.76899 -92.35281 932 ft 94 kts 161°
2026-04-21 11:05 32.76288 -92.35062 816 ft 89 kts 160°
2026-04-21 11:05 32.75704 -92.34850 704 ft 87 kts 162°
2026-04-21 11:06 32.75125 -92.34642 599 ft 87 kts 163°
2026-04-21 11:06 32.74542 -92.34437 489 ft 87 kts 163°
2026-04-21 11:06 32.73966 -92.34235 377 ft 87 kts 163°
2026-04-21 11:06 32.73386 -92.34031 266 ft 87 kts 164°
2026-04-21 11:07 32.72807 -92.33828 134 ft 82 kts 165°
2026-04-21 11:07 32.72410 -92.33692 127 ft 23 kts 163°
2026-04-21 11:07 32.72294 -92.33649 124 ft 16 kts 164°
2026-04-21 11:07 32.72249 -92.33676 128 ft 7 kts 250°
2026-04-21 11:08 32.72256 -92.33717 128 ft 4 kts 319°
2026-04-21 11:08 32.72277 -92.33724 129 ft 0 kts 354°